When you browse on this site, cookies collect data to enhance your experience and personalize the content and advertising you see.
Visit our Privacy Policy to learn more. By continuing to use the site, you agree to this use of cookies and data.
  • En España
  • Lista de países
  • Para 7 días
  • Temperatura del agua
  • Mapa Satelital
  • El tiempo en el mapa
  • Informadores
  • user-avatar
    Iniciar sesión

    Tiempo cada hora Belugino

    Hoy, 17 Junio, Lunes

    Tiempo Temperatura Precipitaciones Viento Presión Humedad
    00:00 +14°C° 0 mm 1 mps 743 mmHg 88%
    01:00 +14°C° 0 mm 1 mps 743 mmHg 90%
    02:00 +14°C° 0 mm 1 mps 744 mmHg 91%
    03:00 +13°C° 0 mm 1 mps 744 mmHg 92%
    04:00 +14°C° 0 mm 1 mps 744 mmHg 91%
    05:00 +14°C° 0 mm 1 mps 744 mmHg 90%
    06:00 +15°C° 0 mm 1 mps 744 mmHg 89%
    07:00 +17°C° 0 mm 2 mps 744 mmHg 83%
    08:00 +18°C° 0 mm 2 mps 744 mmHg 77%
    09:00 +20°C° 0 mm 2 mps 744 mmHg 71%
    10:00 +21°C° 0 mm 2 mps 744 mmHg 66%
    11:00 +23°C° 0 mm 2 mps 744 mmHg 62%
    12:00 +24°C° 0 mm 2 mps 744 mmHg 58%
    13:00 +24°C° 0 mm 2 mps 744 mmHg 58%
    14:00 +24°C° 0 mm 3 mps 743 mmHg 59%
    15:00 +25°C° 0 mm 3 mps 743 mmHg 59%
    16:00 +24°C° 0.1 mm 3 mps 743 mmHg 64%
    17:00 +24°C° 0.1 mm 3 mps 743 mmHg 69%
    18:00 +22°C° 0.1 mm 3 mps 743 mmHg 74%
    19:00 +21°C° 0 mm 3 mps 743 mmHg 78%
    20:00 +19°C° 0 mm 2 mps 743 mmHg 82%
    21:00 +18°C° 0 mm 2 mps 742 mmHg 86%
    22:00 +18°C° 0 mm 2 mps 742 mmHg 88%
    23:00 +17°C° 0 mm 2 mps 743 mmHg 90%

    Mañana, 18 Junio, Martes

    Tiempo Temperatura Precipitaciones Viento Presión Humedad
    00:00 +16°C° 0 mm 2 mps 743 mmHg 91%
    01:00 +16°C° 0 mm 2 mps 742 mmHg 92%
    02:00 +16°C° 0 mm 2 mps 742 mmHg 93%
    03:00 +16°C° 0 mm 2 mps 742 mmHg 94%
    04:00 +16°C° 0.1 mm 2 mps 742 mmHg 94%
    05:00 +17°C° 0.1 mm 2 mps 742 mmHg 93%
    06:00 +17°C° 0.1 mm 2 mps 742 mmHg 93%
    07:00 +19°C° 0.1 mm 2 mps 742 mmHg 87%
    08:00 +20°C° 0.1 mm 2 mps 742 mmHg 81%
    09:00 +23°C° 0.1 mm 2 mps 742 mmHg 75%
    10:00 +24°C° 0.3 mm 2 mps 742 mmHg 71%
    11:00 +25°C° 0.3 mm 3 mps 742 mmHg 66%
    12:00 +26°C° 0.3 mm 3 mps 742 mmHg 62%
    13:00 +26°C° 0.3 mm 3 mps 742 mmHg 60%
    14:00 +26°C° 0.3 mm 3 mps 742 mmHg 57%
    15:00 +27°C° 0.3 mm 3 mps 741 mmHg 55%
    16:00 +26°C° 0 mm 3 mps 742 mmHg 58%
    17:00 +26°C° 0 mm 3 mps 742 mmHg 61%
    18:00 +26°C° 0 mm 3 mps 742 mmHg 64%
    19:00 +24°C° 0 mm 3 mps 742 mmHg 69%
    20:00 +21°C° 0 mm 3 mps 742 mmHg 73%
    21:00 +19°C° 0 mm 3 mps 742 mmHg 77%
    22:00 +18°C° 0 mm 3 mps 742 mmHg 79%
    23:00 +17°C° 0 mm 3 mps 743 mmHg 80%

    Pasado mañana, 19 Junio, Miércoles

    Tiempo Temperatura Precipitaciones Viento Presión Humedad
    00:00 +16°C° 0 mm 3 mps 743 mmHg 81%
    01:00 +16°C° 0 mm 3 mps 743 mmHg 81%
    02:00 +15°C° 0 mm 2 mps 743 mmHg 81%
    03:00 +14°C° 0 mm 2 mps 743 mmHg 82%
    04:00 +15°C° 0 mm 2 mps 744 mmHg 81%
    05:00 +14°C° 0 mm 3 mps 744 mmHg 81%
    06:00 +16°C° 0 mm 3 mps 744 mmHg 80%
    07:00 +17°C° 0 mm 3 mps 744 mmHg 76%
    08:00 +19°C° 0 mm 3 mps 745 mmHg 72%
    09:00 +21°C° 0 mm 3 mps 745 mmHg 68%
    10:00 +22°C° 0 mm 3 mps 745 mmHg 63%
    11:00 +24°C° 0 mm 3 mps 745 mmHg 59%
    12:00 +26°C° 0 mm 3 mps 745 mmHg 54%
    13:00 +26°C° 0 mm 3 mps 745 mmHg 53%
    14:00 +26°C° 0 mm 3 mps 745 mmHg 51%
    15:00 +27°C° 0 mm 3 mps 745 mmHg 50%
    16:00 +27°C° 0 mm 2 mps 745 mmHg 53%
    17:00 +27°C° 0 mm 2 mps 745 mmHg 57%
    18:00 +27°C° 0 mm 1 mps 745 mmHg 60%
    19:00 +24°C° 0 mm 1 mps 745 mmHg 64%
    20:00 +22°C° 0 mm 1 mps 745 mmHg 68%
    21:00 +20°C° 0 mm 1 mps 745 mmHg 72%
    22:00 +19°C° 0 mm 1 mps 745 mmHg 74%
    23:00 +18°C° 0 mm 1 mps 745 mmHg 77%

    20 Junio, Jueves

    Tiempo Temperatura Precipitaciones Viento Presión Humedad
    00:00 +18°C° 0 mm 1 mps 745 mmHg 79%
    01:00 +16°C° 0 mm 1 mps 745 mmHg 79%
    02:00 +16°C° 0 mm 1 mps 746 mmHg 80%
    03:00 +15°C° 0 mm 1 mps 746 mmHg 80%
    04:00 +16°C° 0 mm 1 mps 746 mmHg 79%
    05:00 +18°C° 0 mm 1 mps 746 mmHg 79%
    06:00 +18°C° 0 mm 1 mps 746 mmHg 78%
    07:00 +20°C° 0 mm 1 mps 747 mmHg 73%
    08:00 +22°C° 0 mm 1 mps 747 mmHg 67%
    09:00 +24°C° 0 mm 1 mps 747 mmHg 61%
    10:00 +25°C° 0 mm 1 mps 747 mmHg 56%
    11:00 +27°C° 0 mm 1 mps 747 mmHg 51%
    12:00 +26°C° 0 mm 0 mps 747 mmHg 45%
    13:00 +28°C° 0 mm 1 mps 747 mmHg 45%
    14:00 +28°C° 0 mm 1 mps 746 mmHg 44%
    15:00 +28°C° 0 mm 1 mps 746 mmHg 43%
    16:00 +28°C° 0 mm 1 mps 746 mmHg 47%
    17:00 +28°C° 0 mm 1 mps 746 mmHg 52%
    18:00 +27°C° 0 mm 1 mps 746 mmHg 56%
    19:00 +25°C° 0 mm 1 mps 746 mmHg 59%
    20:00 +23°C° 0 mm 1 mps 746 mmHg 61%
    21:00 +21°C° 0 mm 1 mps 746 mmHg 63%
    22:00 +20°C° 0 mm 1 mps 746 mmHg 65%
    23:00 +19°C° 0 mm 1 mps 746 mmHg 67%

    21 Junio, Viernes

    Tiempo Temperatura Precipitaciones Viento Presión Humedad
    00:00 +19°C° 0 mm 1 mps 746 mmHg 69%
    01:00 +18°C° 0 mm 1 mps 746 mmHg 71%
    02:00 +18°C° 0 mm 1 mps 746 mmHg 73%
    03:00 +16°C° 0 mm 1 mps 747 mmHg 75%
    04:00 +18°C° 0 mm 1 mps 747 mmHg 76%
    05:00 +19°C° 0 mm 1 mps 747 mmHg 77%
    06:00 +18°C° 0 mm 2 mps 747 mmHg 78%
    07:00 +20°C° 0 mm 2 mps 747 mmHg 73%
    08:00 +23°C° 0 mm 2 mps 747 mmHg 69%
    09:00 +24°C° 0 mm 2 mps 747 mmHg 65%
    10:00 +25°C° 0 mm 2 mps 747 mmHg 61%
    11:00 +26°C° 0 mm 2 mps 747 mmHg 57%
    12:00 +27°C° 0 mm 2 mps 747 mmHg 53%
    13:00 +27°C° 0 mm 2 mps 747 mmHg 54%
    14:00 +27°C° 0 mm 3 mps 747 mmHg 55%
    15:00 +27°C° 0 mm 3 mps 746 mmHg 56%
    16:00 +27°C° 0 mm 3 mps 746 mmHg 59%
    17:00 +27°C° 0 mm 3 mps 746 mmHg 63%
    18:00 +27°C° 0 mm 3 mps 746 mmHg 67%
    19:00 +25°C° 0 mm 3 mps 746 mmHg 71%
    20:00 +23°C° 0 mm 2 mps 746 mmHg 76%
    21:00 +21°C° 0 mm 2 mps 746 mmHg 80%
    22:00 +20°C° 0 mm 2 mps 746 mmHg 82%
    23:00 +19°C° 0 mm 2 mps 746 mmHg 83%

    22 Junio, Sábado

    Tiempo Temperatura Precipitaciones Viento Presión Humedad
    00:00 +19°C° 0 mm 3 mps 746 mmHg 84%
    01:00 +19°C° 0 mm 3 mps 746 mmHg 84%
    02:00 +18°C° 0 mm 3 mps 746 mmHg 84%
    03:00 +18°C° 0 mm 3 mps 746 mmHg 84%
    04:00 +19°C° 0 mm 3 mps 746 mmHg 84%
    05:00 +19°C° 0 mm 3 mps 746 mmHg 84%
    06:00 +19°C° 0 mm 3 mps 746 mmHg 84%
    07:00 +21°C° 0 mm 3 mps 746 mmHg 81%
    08:00 +24°C° 0 mm 3 mps 746 mmHg 77%
    09:00 +25°C° 0 mm 4 mps 747 mmHg 73%
    10:00 +26°C° 0.2 mm 4 mps 746 mmHg 70%
    11:00 +27°C° 0.2 mm 4 mps 746 mmHg 67%
    12:00 +27°C° 0.2 mm 4 mps 746 mmHg 64%
    13:00 +28°C° 0.2 mm 5 mps 746 mmHg 64%
    14:00 +28°C° 0.2 mm 5 mps 746 mmHg 63%
    15:00 +28°C° 0.2 mm 5 mps 746 mmHg 62%
    16:00 +28°C° 0.1 mm 4 mps 746 mmHg 65%
    17:00 +28°C° 0.1 mm 4 mps 745 mmHg 68%
    18:00 +27°C° 0.1 mm 3 mps 745 mmHg 70%
    19:00 +26°C° 0 mm 3 mps 745 mmHg 75%
    20:00 +24°C° 0 mm 3 mps 745 mmHg 80%
    21:00 +22°C° 0 mm 3 mps 746 mmHg 85%
    22:00 +21°C° 0 mm 3 mps 745 mmHg 85%
    23:00 +21°C° 0 mm 3 mps 745 mmHg 84%
    Mostrar más